GOES 3 [-]

Last updated on Thu Dec 28 2023 00:02:22 GMT+0000 (Coordinated Universal Time)

1 10953U 78062A 23361.52245705 .00000037 00000+0 00000+0 0 9994 2 10953 8.9452 306.3355 0001017 255.9383 335.6659 0.99357853119565
UTC large
Height (km)
Speed (km/s)
/
Latitude / Longitude
Inclination (degrees)
Orbital Period (minutes)
Azimuth
Elevation
Range (km)
Doppler Factor

Next 0 passes for location: London (51.5072 / 0.1276)

Sorry there are no passes over London.